Eiwamaru — JG5742 — position and weather

sailwx.info

Track history (hours):
 
Tides and Currents Weather Stations Pressure Air Temp Water Temp Dewpoint Dewpoint Depression Visibility Wind Speed Wind Dir Waves Ship Positions

Eiwamaru

Last reported at 2014-Oct-31 10:30 UTC. Time now 2014-Oct-31 10:47 UTC.
Position N 34°32' E 135°20'.

Length 80 m; draft 4 m.

Type: Tanker. MMSI: 431101045.

Date/timePositionNaut miles runAvg speedWind from/ knotsBaromVisibWave heightAir tempDewpointWater temp
2014-Oct-31 10:30N 34°32' E 135°20'0 0.0
2014-Oct-31 09:33N 34°32' E 135°20'0 0.0
2014-Oct-31 08:33N 34°32' E 135°20'0 0.0
2014-Oct-31 07:33N 34°32' E 135°20'0 0.0
2014-Oct-31 06:33N 34°32' E 135°20'0 0.0
2014-Oct-31 05:33N 34°32' E 135°20'0 0.0
2014-Oct-31 04:33N 34°32' E 135°20'0 0.0
2014-Oct-31 03:33N 34°32' E 135°20'0 0.0
2014-Oct-31 02:33N 34°32' E 135°20'0 0.0
2014-Oct-31 01:33N 34°32' E 135°20'0 0.0
2014-Oct-31 00:33N 34°32' E 135°20'0 0.0
2014-Oct-30 23:33N 34°32' E 135°20'0 0.0
2014-Oct-30 22:33N 34°32' E 135°20'0 0.0
2014-Oct-30 21:33N 34°32' E 135°20'0 0.0
2014-Oct-30 20:33N 34°32' E 135°20'0 0.0
2014-Oct-30 19:33N 34°32' E 135°20'0 0.0
2014-Oct-30 18:33N 34°32' E 135°20'0 0.0
2014-Oct-30 17:33N 34°32' E 135°20'0 0.0
2014-Oct-30 16:33N 34°32' E 135°20'0 0.0
2014-Oct-30 15:33N 34°32' E 135°20'4 3.6
2014-Oct-30 14:33N 34°33' E 135°23'2 1.9
2014-Oct-30 13:33N 34°33' E 135°26'0 0.0
2014-Oct-30 12:33N 34°33' E 135°26'0 0.0
2014-Oct-30 11:33N 34°33' E 135°26'0 0.0
2014-Oct-30 10:33N 34°33' E 135°26'0 0.0
2014-Oct-30 09:33N 34°33' E 135°26'0 0.0
2014-Oct-30 08:33N 34°33' E 135°26'0 0.0
2014-Oct-30 07:33N 34°33' E 135°26'0 0.0
2014-Oct-30 06:33N 34°33' E 135°26'2 2.5
2014-Oct-30 05:33N 34°33' E 135°23'3 1.7
2014-Oct-30 03:33N 34°32' E 135°19'0 0.0
2014-Oct-30 02:33N 34°32' E 135°19'0 0.0
2014-Oct-30 01:34N 34°32' E 135°19'0 0.0
2014-Oct-30 00:34N 34°32' E 135°19'0 0.0
2014-Oct-29 23:34N 34°32' E 135°19'0 0.0
2014-Oct-29 22:33N 34°32' E 135°19'0 0.0
2014-Oct-29 21:33N 34°32' E 135°19'0 0.0
2014-Oct-29 20:33N 34°32' E 135°19'0 0.0
2014-Oct-29 19:33N 34°32' E 135°19'0 0.0
2014-Oct-29 18:33N 34°32' E 135°19'0 0.0
2014-Oct-29 17:33N 34°32' E 135°19'0 0.0
2014-Oct-29 16:33N 34°32' E 135°19'0 0.0
2014-Oct-29 15:33N 34°32' E 135°19'1 0.6
2014-Oct-29 14:33N 34°32' E 135°18'1212.2
2014-Oct-29 13:33N 34°24' E 135°07'1211.7
2014-Oct-29 12:32N 34°13' E 134°59'24310.1
2014-Oct-28 12:22N 35°13' E 139°46'1012.7
2014-Oct-28 11:33N 35°23' E 139°42'8 8.3
2014-Oct-28 10:33N 35°31' E 139°46'0 0.0
2014-Oct-28 09:33N 35°31' E 139°46'0 0.0
2014-Oct-28 08:33N 35°31' E 139°46'0 0.0
2014-Oct-28 07:33N 35°31' E 139°46'0 0.0
2014-Oct-28 06:33N 35°31' E 139°46'0 0.0
2014-Oct-28 05:33N 35°31' E 139°46'2 1.7
2014-Oct-28 04:33N 35°30' E 139°48'1212.3
2014-Oct-28 03:33N 35°17' E 139°45'24410.6
2014-Oct-27 04:32N 34°02' E 135°03'6 1.3
2014-Oct-26 23:23N 34°07' E 135°07'0 0.0
2014-Oct-26 22:33N 34°07' E 135°07'0 0.0
2014-Oct-26 21:32N 34°07' E 135°07'0 0.0
2014-Oct-26 20:31N 34°07' E 135°07'0 0.0
2014-Oct-26 19:32N 34°08' E 135°07'0 0.0
2014-Oct-26 18:32N 34°08' E 135°07'0 0.0
2014-Oct-26 17:31N 34°08' E 135°08'0 0.1
2014-Oct-26 16:33N 34°08' E 135°07'0 0.0
2014-Oct-26 15:23N 34°07' E 135°07'0 0.0
2014-Oct-26 14:29N 34°08' E 135°07'0 0.0
2014-Oct-26 12:06N 34°07' E 135°07'0 0.0
2014-Oct-26 10:13N 34°07' E 135°07'0 0.0
2014-Oct-26 09:33N 34°07' E 135°07'0 0.1
2014-Oct-26 08:33N 34°07' E 135°08'3 2.7
2014-Oct-26 07:33N 34°09' E 135°05'1312.5
2014-Oct-26 06:33N 34°21' E 134°60'1413.5
2014-Oct-26 05:32N 34°29' E 135°13'1111.1
2014-Oct-26 04:33N 34°33' E 135°26'0 0.1
2014-Oct-26 03:33N 34°33' E 135°26'0 0.0
2014-Oct-26 02:33N 34°33' E 135°26'0 0.0
2014-Oct-26 01:33N 34°33' E 135°26'0 0.0
2014-Oct-26 00:33N 34°33' E 135°26'0 0.0
2014-Oct-25 23:33N 34°33' E 135°26'3 2.6
2014-Oct-25 22:32N 34°33' E 135°23'3 3.2
2014-Oct-25 21:33N 34°32' E 135°19'0 0.0
2014-Oct-25 20:33N 34°32' E 135°19'0 0.0
2014-Oct-25 19:33N 34°32' E 135°19'0 0.0
2014-Oct-25 18:33N 34°32' E 135°19'0 0.0
2014-Oct-25 17:33N 34°32' E 135°19'0 0.0
2014-Oct-25 16:33N 34°32' E 135°19'0 0.0
2014-Oct-25 15:33N 34°32' E 135°19'0 0.0
2014-Oct-25 14:33N 34°32' E 135°19'7 6.8
2014-Oct-25 13:33N 34°28' E 135°12'1413.8
2014-Oct-25 12:32N 34°18' E 135°00'1212.5
2014-Oct-25 11:33N 34°07' E 135°07'0 0.1
2014-Oct-25 06:33N 34°08' E 135°07'2010.0
2014-Oct-25 04:32N 34°28' E 135°11'1212.5
2014-Oct-25 03:33N 34°33' E 135°24'1 1.1
2014-Oct-25 02:33N 34°33' E 135°26'0 0.0
2014-Oct-25 01:33N 34°33' E 135°26'0 0.0
2014-Oct-25 00:33N 34°33' E 135°26'0 0.0
2014-Oct-24 23:33N 34°33' E 135°26'0 0.0
2014-Oct-24 22:33N 34°33' E 135°26'1 1.5
2014-Oct-24 21:33N 34°33' E 135°24'4 4.1
2014-Oct-24 20:33N 34°32' E 135°19'0 0.0
2014-Oct-24 19:33N 34°32' E 135°19'0 0.0
2014-Oct-24 18:33N 34°32' E 135°19'0 0.0
2014-Oct-24 17:33N 34°32' E 135°19'0 0.0
2014-Oct-24 16:33N 34°32' E 135°19'0 0.0
2014-Oct-24 15:33N 34°32' E 135°19'0 0.0
2014-Oct-24 14:33N 34°32' E 135°19'0 0.0
2014-Oct-24 13:33N 34°32' E 135°19'0 0.0
2014-Oct-24 12:33N 34°32' E 135°19'0 0.0
2014-Oct-24 11:33N 34°32' E 135°19'7 6.7
2014-Oct-24 10:33N 34°28' E 135°13'1413.6
2014-Oct-24 09:33N 34°19' E 135°01'1312.6
2014-Oct-24 08:34N 34°07' E 135°07'0 0.0
2014-Oct-24 02:30N 34°07' E 135°07'0 0.1
2014-Oct-24 01:33N 34°07' E 135°07'0 0.0
2014-Oct-24 00:25N 34°07' E 135°07'0 0.0
2014-Oct-23 23:33N 34°07' E 135°07'0 0.1
2014-Oct-23 22:33N 34°07' E 135°07'0 0.0
2014-Oct-23 21:29N 34°07' E 135°07'0 0.0
2014-Oct-23 20:31N 34°07' E 135°07'0 0.0
2014-Oct-23 19:32N 34°07' E 135°07'0 0.0
2014-Oct-23 18:31N 34°07' E 135°07'0 0.0
2014-Oct-23 17:32N 34°07' E 135°07'0 0.0
2014-Oct-23 16:33N 34°07' E 135°07'0 0.0
2014-Oct-23 15:32N 34°07' E 135°07'0 0.1
2014-Oct-23 14:33N 34°07' E 135°07'0 0.0
2014-Oct-23 12:32N 34°07' E 135°07'0 0.0
2014-Oct-23 11:28N 34°07' E 135°07'0 0.0
2014-Oct-23 10:18N 34°07' E 135°07'1 1.4
2014-Oct-23 09:33N 34°08' E 135°06'239 9.9
2014-Oct-22 09:33N 35°18' E 139°43'1211.6
2014-Oct-22 08:33N 35°29' E 139°48'2 1.9
2014-Oct-22 07:34N 35°31' E 139°46'0 0.0
2014-Oct-22 06:33N 35°31' E 139°46'0 0.0
2014-Oct-22 05:33N 35°31' E 139°46'0 0.0
2014-Oct-22 04:33N 35°31' E 139°46'0 0.0
2014-Oct-22 03:34N 35°31' E 139°46'0 0.0
2014-Oct-22 02:33N 35°31' E 139°46'3 3.2
2014-Oct-22 01:34N 35°30' E 139°50'0 0.0
2014-Oct-22 00:33N 35°30' E 139°50'0 0.0
2014-Oct-21 23:33N 35°30' E 139°50'0 0.0
2014-Oct-21 22:34N 35°30' E 139°50'0 0.0
2014-Oct-21 21:34N 35°30' E 139°50'0 0.0
2014-Oct-21 20:34N 35°30' E 139°50'0 0.1
2014-Oct-21 19:34N 35°30' E 139°50'0 0.0
2014-Oct-21 18:26N 35°30' E 139°50'0 0.0
2014-Oct-21 17:33N 35°30' E 139°50'0 0.0
2014-Oct-21 16:33N 35°30' E 139°50'0 0.0
2014-Oct-21 15:34N 35°30' E 139°50'0 0.0
2014-Oct-21 14:33N 35°30' E 139°50'0 0.0
2014-Oct-21 13:32N 35°30' E 139°50'0 0.1
2014-Oct-21 12:34N 35°30' E 139°50'0 0.0
2014-Oct-21 11:33N 35°30' E 139°50'0 0.0
2014-Oct-21 10:32N 35°30' E 139°50'  
Track history (hours):
 
Tides and Currents Weather Stations Pressure Air Temp Water Temp Dewpoint Dewpoint Depression Visibility Wind Speed Wind Dir Waves Ship Positions

Eiwamaru

Last reported at 2014-Oct-31 10:30 UTC. Time now 2014-Oct-31 10:47 UTC.
Position N 34°32' E 135°20'.

Length 80 m; draft 4 m.

Type: Tanker. MMSI: 431101045.

Date/timePositionNaut miles runAvg speedWind from/ knotsBaromVisibWave heightAir tempDewpointWater temp
2014-Oct-31 10:30N 34°32' E 135°20'0 0.0
2014-Oct-31 09:33N 34°32' E 135°20'0 0.0
2014-Oct-31 08:33N 34°32' E 135°20'0 0.0
2014-Oct-31 07:33N 34°32' E 135°20'0 0.0
2014-Oct-31 06:33N 34°32' E 135°20'0 0.0
2014-Oct-31 05:33N 34°32' E 135°20'0 0.0
2014-Oct-31 04:33N 34°32' E 135°20'0 0.0
2014-Oct-31 03:33N 34°32' E 135°20'0 0.0
2014-Oct-31 02:33N 34°32' E 135°20'0 0.0
2014-Oct-31 01:33N 34°32' E 135°20'0 0.0
2014-Oct-31 00:33N 34°32' E 135°20'0 0.0
2014-Oct-30 23:33N 34°32' E 135°20'0 0.0
2014-Oct-30 22:33N 34°32' E 135°20'0 0.0
2014-Oct-30 21:33N 34°32' E 135°20'0 0.0
2014-Oct-30 20:33N 34°32' E 135°20'0 0.0
2014-Oct-30 19:33N 34°32' E 135°20'0 0.0
2014-Oct-30 18:33N 34°32' E 135°20'0 0.0
2014-Oct-30 17:33N 34°32' E 135°20'0 0.0
2014-Oct-30 16:33N 34°32' E 135°20'0 0.0
2014-Oct-30 15:33N 34°32' E 135°20'4 3.6
2014-Oct-30 14:33N 34°33' E 135°23'2 1.9
2014-Oct-30 13:33N 34°33' E 135°26'0 0.0
2014-Oct-30 12:33N 34°33' E 135°26'0 0.0
2014-Oct-30 11:33N 34°33' E 135°26'0 0.0
2014-Oct-30 10:33N 34°33' E 135°26'0 0.0
2014-Oct-30 09:33N 34°33' E 135°26'0 0.0
2014-Oct-30 08:33N 34°33' E 135°26'0 0.0
2014-Oct-30 07:33N 34°33' E 135°26'0 0.0
2014-Oct-30 06:33N 34°33' E 135°26'2 2.5
2014-Oct-30 05:33N 34°33' E 135°23'3 1.7
2014-Oct-30 03:33N 34°32' E 135°19'0 0.0
2014-Oct-30 02:33N 34°32' E 135°19'0 0.0
2014-Oct-30 01:34N 34°32' E 135°19'0 0.0
2014-Oct-30 00:34N 34°32' E 135°19'0 0.0
2014-Oct-29 23:34N 34°32' E 135°19'0 0.0
2014-Oct-29 22:33N 34°32' E 135°19'0 0.0
2014-Oct-29 21:33N 34°32' E 135°19'0 0.0
2014-Oct-29 20:33N 34°32' E 135°19'0 0.0
2014-Oct-29 19:33N 34°32' E 135°19'0 0.0
2014-Oct-29 18:33N 34°32' E 135°19'0 0.0
2014-Oct-29 17:33N 34°32' E 135°19'0 0.0
2014-Oct-29 16:33N 34°32' E 135°19'0 0.0
2014-Oct-29 15:33N 34°32' E 135°19'1 0.6
2014-Oct-29 14:33N 34°32' E 135°18'1212.2
2014-Oct-29 13:33N 34°24' E 135°07'1211.7
2014-Oct-29 12:32N 34°13' E 134°59'24310.1
2014-Oct-28 12:22N 35°13' E 139°46'1012.7
2014-Oct-28 11:33N 35°23' E 139°42'8 8.3
2014-Oct-28 10:33N 35°31' E 139°46'0 0.0
2014-Oct-28 09:33N 35°31' E 139°46'0 0.0
2014-Oct-28 08:33N 35°31' E 139°46'0 0.0
2014-Oct-28 07:33N 35°31' E 139°46'0 0.0
2014-Oct-28 06:33N 35°31' E 139°46'0 0.0
2014-Oct-28 05:33N 35°31' E 139°46'2 1.7
2014-Oct-28 04:33N 35°30' E 139°48'1212.3
2014-Oct-28 03:33N 35°17' E 139°45'24410.6
2014-Oct-27 04:32N 34°02' E 135°03'6 1.3
2014-Oct-26 23:23N 34°07' E 135°07'0 0.0
2014-Oct-26 22:33N 34°07' E 135°07'0 0.0
2014-Oct-26 21:32N 34°07' E 135°07'0 0.0
2014-Oct-26 20:31N 34°07' E 135°07'0 0.0
2014-Oct-26 19:32N 34°08' E 135°07'0 0.0
2014-Oct-26 18:32N 34°08' E 135°07'0 0.0
2014-Oct-26 17:31N 34°08' E 135°08'0 0.1
2014-Oct-26 16:33N 34°08' E 135°07'0 0.0
2014-Oct-26 15:23N 34°07' E 135°07'0 0.0
2014-Oct-26 14:29N 34°08' E 135°07'0 0.0
2014-Oct-26 12:06N 34°07' E 135°07'0 0.0
2014-Oct-26 10:13N 34°07' E 135°07'0 0.0
2014-Oct-26 09:33N 34°07' E 135°07'0 0.1
2014-Oct-26 08:33N 34°07' E 135°08'3 2.7
2014-Oct-26 07:33N 34°09' E 135°05'1312.5
2014-Oct-26 06:33N 34°21' E 134°60'1413.5
2014-Oct-26 05:32N 34°29' E 135°13'1111.1
2014-Oct-26 04:33N 34°33' E 135°26'0 0.1
2014-Oct-26 03:33N 34°33' E 135°26'0 0.0
2014-Oct-26 02:33N 34°33' E 135°26'0 0.0
2014-Oct-26 01:33N 34°33' E 135°26'0 0.0
2014-Oct-26 00:33N 34°33' E 135°26'0 0.0
2014-Oct-25 23:33N 34°33' E 135°26'3 2.6
2014-Oct-25 22:32N 34°33' E 135°23'3 3.2
2014-Oct-25 21:33N 34°32' E 135°19'0 0.0
2014-Oct-25 20:33N 34°32' E 135°19'0 0.0
2014-Oct-25 19:33N 34°32' E 135°19'0 0.0
2014-Oct-25 18:33N 34°32' E 135°19'0 0.0
2014-Oct-25 17:33N 34°32' E 135°19'0 0.0
2014-Oct-25 16:33N 34°32' E 135°19'0 0.0
2014-Oct-25 15:33N 34°32' E 135°19'0 0.0
2014-Oct-25 14:33N 34°32' E 135°19'7 6.8
2014-Oct-25 13:33N 34°28' E 135°12'1413.8
2014-Oct-25 12:32N 34°18' E 135°00'1212.5
2014-Oct-25 11:33N 34°07' E 135°07'0 0.1
2014-Oct-25 06:33N 34°08' E 135°07'2010.0
2014-Oct-25 04:32N 34°28' E 135°11'1212.5
2014-Oct-25 03:33N 34°33' E 135°24'1 1.1
2014-Oct-25 02:33N 34°33' E 135°26'0 0.0
2014-Oct-25 01:33N 34°33' E 135°26'0 0.0
2014-Oct-25 00:33N 34°33' E 135°26'0 0.0
2014-Oct-24 23:33N 34°33' E 135°26'0 0.0
2014-Oct-24 22:33N 34°33' E 135°26'1 1.5
2014-Oct-24 21:33N 34°33' E 135°24'4 4.1
2014-Oct-24 20:33N 34°32' E 135°19'0 0.0
2014-Oct-24 19:33N 34°32' E 135°19'0 0.0
2014-Oct-24 18:33N 34°32' E 135°19'0 0.0
2014-Oct-24 17:33N 34°32' E 135°19'0 0.0
2014-Oct-24 16:33N 34°32' E 135°19'0 0.0
2014-Oct-24 15:33N 34°32' E 135°19'0 0.0
2014-Oct-24 14:33N 34°32' E 135°19'0 0.0
2014-Oct-24 13:33N 34°32' E 135°19'0 0.0
2014-Oct-24 12:33N 34°32' E 135°19'0 0.0
2014-Oct-24 11:33N 34°32' E 135°19'7 6.7
2014-Oct-24 10:33N 34°28' E 135°13'1413.6
2014-Oct-24 09:33N 34°19' E 135°01'1312.6
2014-Oct-24 08:34N 34°07' E 135°07'0 0.0
2014-Oct-24 02:30N 34°07' E 135°07'0 0.1
2014-Oct-24 01:33N 34°07' E 135°07'0 0.0
2014-Oct-24 00:25N 34°07' E 135°07'0 0.0
2014-Oct-23 23:33N 34°07' E 135°07'0 0.1
2014-Oct-23 22:33N 34°07' E 135°07'0 0.0
2014-Oct-23 21:29N 34°07' E 135°07'0 0.0
2014-Oct-23 20:31N 34°07' E 135°07'0 0.0
2014-Oct-23 19:32N 34°07' E 135°07'0 0.0
2014-Oct-23 18:31N 34°07' E 135°07'0 0.0
2014-Oct-23 17:32N 34°07' E 135°07'0 0.0
2014-Oct-23 16:33N 34°07' E 135°07'0 0.0
2014-Oct-23 15:32N 34°07' E 135°07'0 0.1
2014-Oct-23 14:33N 34°07' E 135°07'0 0.0
2014-Oct-23 12:32N 34°07' E 135°07'0 0.0
2014-Oct-23 11:28N 34°07' E 135°07'0 0.0
2014-Oct-23 10:18N 34°07' E 135°07'1 1.4
2014-Oct-23 09:33N 34°08' E 135°06'239 9.9
2014-Oct-22 09:33N 35°18' E 139°43'1211.6
2014-Oct-22 08:33N 35°29' E 139°48'2 1.9
2014-Oct-22 07:34N 35°31' E 139°46'0 0.0
2014-Oct-22 06:33N 35°31' E 139°46'0 0.0
2014-Oct-22 05:33N 35°31' E 139°46'0 0.0
2014-Oct-22 04:33N 35°31' E 139°46'0 0.0
2014-Oct-22 03:34N 35°31' E 139°46'0 0.0
2014-Oct-22 02:33N 35°31' E 139°46'3 3.2
2014-Oct-22 01:34N 35°30' E 139°50'0 0.0
2014-Oct-22 00:33N 35°30' E 139°50'0 0.0
2014-Oct-21 23:33N 35°30' E 139°50'0 0.0
2014-Oct-21 22:34N 35°30' E 139°50'0 0.0
2014-Oct-21 21:34N 35°30' E 139°50'0 0.0
2014-Oct-21 20:34N 35°30' E 139°50'0 0.1
2014-Oct-21 19:34N 35°30' E 139°50'0 0.0
2014-Oct-21 18:26N 35°30' E 139°50'0 0.0
2014-Oct-21 17:33N 35°30' E 139°50'0 0.0
2014-Oct-21 16:33N 35°30' E 139°50'0 0.0
2014-Oct-21 15:34N 35°30' E 139°50'0 0.0
2014-Oct-21 14:33N 35°30' E 139°50'0 0.0
2014-Oct-21 13:32N 35°30' E 139°50'0 0.1
2014-Oct-21 12:34N 35°30' E 139°50'0 0.0
2014-Oct-21 11:33N 35°30' E 139°50'0 0.0
2014-Oct-21 10:32N 35°30' E 139°50'  

Dump ship's entire track history